This is the latest recevied weather packets stored in our database for station/object IT9FBN-3. If no packets are shown the sender has not sent any weather packets the latest 10 day(s).
| Time | Temp. | Humidity | Pressure | Rain* | Wind** | Luminosity | Snow |
|---|---|---|---|---|---|---|---|
| 1777480202 | 22.78° C | 43% | 1015.2 hPa | 0 mm | - | - | - |
| 1777479901 | 23.33° C | 43% | 1015.2 hPa | 0 mm | - | - | - |
| 1777479601 | 23.33° C | 44% | 1015.2 hPa | 0 mm | - | - | - |
| 1777479301 | 23.33° C | 42% | 1015.3 hPa | 0 mm | - | - | - |
| 1777479001 | 23.33° C | 39% | 1015.3 hPa | 0 mm | - | - | - |
| 1777478701 | 23.33° C | 40% | 1015.3 hPa | 0 mm | - | - | - |
| 1777478402 | 23.33° C | 39% | 1015.4 hPa | 0 mm | - | - | - |
| 1777478101 | 23.33° C | 36% | 1015.4 hPa | 0 mm | - | - | - |
| 1777477801 | 23.33° C | 38% | 1015.7 hPa | 0 mm | - | - | - |
| 1777477502 | 23.33° C | 37% | 1015.7 hPa | 0 mm | - | - | - |
| 1777477202 | 22.78° C | 37% | 1015.7 hPa | 0 mm | - | - | - |
| 1777476902 | 22.78° C | 38% | 1015.6 hPa | 0 mm | - | - | - |
| 1777476601 | 22.78° C | 38% | 1015.7 hPa | 0 mm | - | - | - |
| 1777476302 | 22.78° C | 40% | 1015.7 hPa | 0 mm | - | - | - |
| 1777476002 | 22.78° C | 41% | 1015.8 hPa | 0 mm | - | - | - |
| 1777475701 | 22.22° C | 40% | 1015.8 hPa | 0 mm | - | - | - |
| 1777475402 | 22.22° C | 41% | 1015.8 hPa | 0 mm | - | - | - |
| 1777475102 | 22.22° C | 41% | 1015.8 hPa | 0 mm | - | - | - |
| 1777474801 | 21.67° C | 41% | 1016.1 hPa | 0 mm | - | - | - |
| 1777474502 | 21.67° C | 41% | 1016.1 hPa | 0 mm | - | - | - |
| 1777474202 | 21.67° C | 43% | 1016.2 hPa | 0 mm | - | - | - |
| 1777473901 | 21.67° C | 43% | 1016.3 hPa | 0 mm | - | - | - |
| 1777473602 | 21.11° C | 45% | 1016.2 hPa | 0 mm | - | - | - |
| 1777473301 | 21.11° C | 46% | 1016.2 hPa | 0 mm | - | - | - |
| 1777473002 | 21.11° C | 46% | 1016.3 hPa | 0 mm | - | - | - |
* Rain latest hour (hover to see other rain measurements)
** Current wind speed in m/s (hover to see current wind gust speed)